Regional Weather Roundup
Issued by NWS Little Rock, AR

Home | Current Version | Previous Version | Text Only | Print | Product List | Glossary Off
Versions: 1 2 3 4 5 6 7 8 9 10 11 12 13 14 15 16 17 18 19 20 21 22 23 24 25 26 27 28 29 30 31 32

000
ASUS44 KLZK 170405
RWRLZK

WEATHER ROUNDUP FOR ARKANSAS
NATIONAL WEATHER SERVICE LITTLE ROCK AR
1000 PM CST SAT DEC 16 2017

NOTE: "FAIR" INDICATES FEW OR NO CLOUDS BELOW 12,000 FEET WITH NO
SIGNIFICANT WEATHER AND/OR OBSTRUCTIONS TO VISIBILITY.

ARZ001-003-010-029-170500-
NORTHWEST ARKANSAS

CITY           SKY/WX    TMP DP  RH WIND       PRES   REMARKS
FAYETTEVILLE   LGT RAIN  45  36  70 S8        30.04S
FORT SMITH     LGT RAIN  46  42  86 E6        30.06F
HARRISON       CLOUDY    48  27  44 S8        30.04F
BENTONVILLE    LGT RAIN  49  28  44 S12       30.05S
ROGERS         CLOUDY    49  27  42 S9        30.03F
SILOAM SPGS    LGT RAIN  46  34  62 S15       30.04S
HIGHFILL       LGT RAIN  48  31  51 S17       30.03S
$$

ARZ004-005-016-170500-
NORTH CENTRAL ARKANSAS

CITY           SKY/WX    TMP DP  RH WIND       PRES   REMARKS
BATESVILLE     CLOUDY    48  33  56 SE3       30.14F
FLIPPIN        CLOUDY    49  28  44 VRB3      30.08F
MTN HOME       CLOUDY    48  28  46 S8        30.08S
$$

ARZ040-041-170500-
WEST CENTRAL ARKANSAS

CITY           SKY/WX    TMP DP  RH WIND       PRES   REMARKS
MENA           CLOUDY    48  43  81 CALM      30.09R
MOUNT IDA      CLOUDY    45  43  93 CALM      30.06F
$$

ARZ009-017-025-026-028-170500-
NORTHEAST ARKANSAS

CITY           SKY/WX    TMP DP  RH WIND       PRES   REMARKS
CORNING        FAIR      46  34  61 S9        30.15F
JONESBORO      CLOUDY    45  34  65 S8        30.16F
NEWPORT        CLOUDY    46  35  65 S9        30.16F
WALNUT RIDGE   CLOUDY    45  33  63 S13       30.15F
BLYTHEVILLE    CLOUDY    46  33  60 S7        30.18F
$$

ARZ022-023-033-042-044-170500-
CENTRAL ARKANSAS

CITY           SKY/WX    TMP DP  RH WIND       PRES   REMARKS
LITTLE ROCK    CLOUDY    46  41  82 SE5       30.12F
N LITTLE ROCK    N/A     46  40  78 S5        30.14F
JACKSONVILLE   CLOUDY    45  42  89 E3        30.11F
SEARCY         LGT RAIN  48  39  71 S7        30.14F
HOT SPRINGS    CLOUDY    46  45  96 E5        30.10F
RUSSELLVILLE   CLOUDY    44  40  85 SE3       30.08F
CLINTON        CLOUDY    45  34  65 CALM      30.10F
$$

ARZ036-170500-
EAST ARKANSAS

CITY           SKY/WX    TMP DP  RH WIND       PRES   REMARKS
WEST MEMPHIS   MOCLDY    45  34  65 S7        30.18S
$$

ARZ050-053-066-070-073-170500-
SOUTHWEST ARKANSAS

CITY           SKY/WX    TMP DP  RH WIND       PRES   REMARKS
ARKADELPHIA    CLOUDY    46  42  86 CALM      30.12R
CAMDEN         DRIZZLE   46  41  81 CALM      30.10F
TEXARKANA      HVY RAIN  43  43 100 CALM      30.13R FOG
EL DORADO      CLOUDY    49  41  74 CALM      30.11F
DE QUEEN       RAIN      46  45  96 S6        30.12R
$$

ARZ056-057-069-170500-
SOUTHEAST ARKANSAS

CITY           SKY/WX    TMP DP  RH WIND       PRES   REMARKS
PINE BLUFF     CLOUDY    46  41  82 CALM      30.14F
STUTTGART      CLOUDY    46  40  79 SE7       30.14F
MONTICELLO     CLOUDY    50  33  52 NE3       30.13F

$$






USA.gov is the U.S. government's official web portal to all federal, state and local government web resources and services.